| time (UTC) | temp F | wind direction | speed MPH | gust MPH | rain 1hr in | rain 24hr in | rain mn in | humidity % | barometer mb |
| 20260905061548 | 73 | 41 | 1.0 | 3.0 | 0.00 | 0.00 | 0.00 | 95 | 1013.7 |
| 20260905060046 | 73 | 40 | 2.0 | 3.0 | 0.00 | 0.00 | 0.00 | 94 | 1013.6 |
| 20260905054605 | 73 | 40 | 1.0 | 3.0 | 0.00 | 0.00 | 0.00 | 95 | 1013.7 |
| 20260905053035 | 72 | 40 | 1.0 | 4.0 | 0.00 | 0.00 | 0.00 | 95 | 1013.6 |
| 20260905051531 | 72 | 41 | 1.0 | 4.0 | 0.00 | 0.00 | 0.00 | 95 | 1013.5 |
| 20260905050027 | 71 | 24 | 3.0 | 6.0 | 0.00 | 0.00 | 0.00 | 96 | 1013.4 |
| 20260905044524 | 70 | 178 | 0.0 | 2.0 | 0.00 | 0.00 | 0.00 | 94 | 1013.3 |
| 20260905043023 | 70 | 178 | 0.0 | 1.0 | 0.00 | 0.00 | 0.00 | 94 | 1013.3 |
| 20260905041526 | 70 | 178 | 1.0 | 2.0 | 0.00 | 0.00 | 0.00 | 94 | 1013.2 |
| 20260905040021 | 71 | 178 | 1.0 | 2.0 | 0.00 | 0.00 | 0.00 | 94 | 1013.1 |
| 20260905034521 | 70 | 178 | 0.0 | 2.0 | 0.00 | 0.00 | 0.00 | 94 | 1013.2 |
| 20260905033019 | 71 | 178 | 1.0 | 2.0 | 0.00 | 0.00 | 0.00 | 93 | 1013.2 |
| 20260905031518 | 72 | 178 | 1.0 | 2.0 | 0.00 | 0.00 | 0.00 | 93 | 1013.2 |
| 20260905030024 | 72 | 178 | 0.0 | 2.0 | 0.00 | 0.00 | 0.00 | 93 | 1013.2 |
| 20260905024515 | 73 | 178 | 0.0 | 2.0 | 0.00 | 0.00 | 0.00 | 93 | 1013.1 |
| 20260905023015 | 74 | 178 | 0.0 | 2.0 | 0.00 | 0.00 | 0.00 | 93 | 1013.1 |
| 20260905021514 | 74 | 178 | 1.0 | 3.0 | 0.00 | 0.00 | 0.00 | 93 | 1013.1 |
| 20260905020012 | 75 | 178 | 0.0 | 1.0 | 0.00 | 0.00 | 0.00 | 93 | 1013.0 |
| 20260905014512 | 75 | 178 | 2.0 | 3.0 | 0.00 | 0.00 | 0.00 | 92 | 1012.6 |
| 20260905013014 | 76 | 178 | 0.0 | 1.0 | 0.00 | 0.00 | 0.00 | 91 | 1012.6 |
| 20260905011513 | 77 | 178 | 1.0 | 2.0 | 0.00 | 0.00 | 0.00 | 90 | 1012.4 |
| 20260905010014 | 78 | 178 | 0.0 | 2.0 | 0.00 | 0.00 | 0.00 | 88 | 1012.2 |
| 20260905004507 | 79 | 178 | 1.0 | 3.0 | 0.00 | 0.00 | 0.00 | 87 | 1012.2 |
| 20260905003007 | 81 | 178 | 1.0 | 2.0 | 0.00 | 0.00 | 0.00 | 85 | 1012.4 |
| 20260905001506 | 82 | 178 | 1.0 | 3.0 | 0.00 | 0.00 | 0.00 | 84 | 1012.5 |
| 20260905000105 | 83 | 180 | 2.0 | 5.0 | 0.00 | 0.00 | 0.00 | 82 | 1012.4 |
| 20260904234504 | 85 | 174 | 3.0 | 6.0 | 0.00 | 0.00 | 0.00 | 81 | 1012.3 |
| 20260904233004 | 85 | 193 | 3.0 | 7.0 | 0.00 | 0.00 | 0.00 | 80 | 1012.3 |
| 20260904231504 | 86 | 184 | 5.0 | 7.0 | 0.00 | 0.00 | 0.00 | 78 | 1012.3 |
| 20260904230005 | 86 | 180 | 3.0 | 6.0 | 0.00 | 0.00 | 0.00 | 79 | 1012.4 |
| 20260904224501 | 88 | 220 | 3.0 | 7.0 | 0.00 | 0.00 | 0.00 | 73 | 1012.4 |
| 20260904223100 | 88 | 212 | 3.0 | 6.0 | 0.00 | 0.00 | 0.00 | 73 | 1012.2 |
| 20260904223002 | 88 | 216 | 2.0 | 6.0 | 0.00 | 0.00 | 0.00 | 74 | 1012.2 |
| 20260904221606 | 88 | 223 | 3.0 | 7.0 | 0.00 | 0.00 | 0.00 | 72 | 1012.0 |
| 20260904214559 | 88 | 206 | 4.0 | 8.0 | 0.00 | 0.00 | 0.00 | 74 | 1011.8 |
| 20260904213057 | 86 | 209 | 1.0 | 8.0 | 0.00 | 0.00 | 0.00 | 80 | 1011.9 |
| 20260904211558 | 87 | 211 | 3.0 | 7.0 | 0.00 | 0.00 | 0.00 | 76 | 1011.8 |
| 20260904210057 | 87 | 204 | 5.0 | 7.0 | 0.00 | 0.00 | 0.00 | 75 | 1011.8 |
| 20260904204553 | 87 | 205 | 3.0 | 6.0 | 0.00 | 0.00 | 0.00 | 76 | 1011.7 |
| 20260904203057 | 88 | 226 | 5.0 | 9.0 | 0.00 | 0.00 | 0.00 | 74 | 1011.5 |
| 20260904201556 | 86 | 235 | 5.0 | 11.0 | 0.00 | 0.00 | 0.00 | 75 | 1011.6 |
| 20260904200109 | 87 | 209 | 7.0 | 10.0 | 0.00 | 0.00 | 0.00 | 72 | 1011.9 |
| 20260904194552 | 89 | 217 | 5.0 | 9.0 | 0.00 | 0.00 | 0.00 | 70 | 1011.8 |
| 20260904193050 | 89 | 174 | 6.0 | 10.0 | 0.00 | 0.00 | 0.00 | 69 | 1011.7 |
| 20260904191550 | 89 | 187 | 5.0 | 11.0 | 0.00 | 0.00 | 0.00 | 72 | 1011.4 |
| 20260904190051 | 89 | 177 | 5.0 | 8.0 | 0.00 | 0.00 | 0.00 | 73 | 1011.5 |
| 20260904184547 | 89 | 190 | 5.0 | 10.0 | 0.00 | 0.00 | 0.00 | 68 | 1011.5 |
| 20260904183046 | 89 | 192 | 4.0 | 9.0 | 0.00 | 0.00 | 0.00 | 70 | 1011.6 |
| 20260904181547 | 89 | 196 | 2.0 | 7.0 | 0.00 | 0.00 | 0.00 | 70 | 1011.6 |
| 20260904180047 | 88 | 217 | 3.0 | 6.0 | 0.00 | 0.00 | 0.00 | 71 | 1011.7 |
| 20260904174542 | 88 | 242 | 3.0 | 6.0 | 0.00 | 0.00 | 0.00 | 70 | 1011.9 |
| 20260904173055 | 88 | 259 | 1.0 | 4.0 | 0.00 | 0.00 | 0.00 | 67 | 1011.8 |
| 20260904171545 | 88 | 270 | 1.0 | 6.0 | 0.00 | 0.00 | 0.00 | 68 | 1011.9 |
| 20260904170039 | 88 | 286 | 2.0 | 4.0 | 0.00 | 0.00 | 0.00 | 69 | 1011.9 |
| 20260904164531 | 86 | 290 | 1.0 | 7.0 | 0.00 | 0.00 | 0.00 | 70 | 1011.9 |
| 20260904163030 | 85 | 265 | 3.0 | 8.0 | 0.00 | 0.00 | 0.00 | 74 | 1011.8 |
| 20260904161528 | 85 | 279 | 4.0 | 8.0 | 0.00 | 0.00 | 0.00 | 73 | 1011.7 |
| 20260904160031 | 85 | 227 | 3.0 | 8.0 | 0.00 | 0.00 | 0.00 | 73 | 1011.8 |
| 20260904154523 | 84 | 248 | 4.0 | 8.0 | 0.00 | 0.00 | 0.00 | 76 | 1012.0 |
| 20260904153020 | 84 | 254 | 4.0 | 8.0 | 0.00 | 0.00 | 0.00 | 78 | 1011.8 |
| 20260904151516 | 82 | 247 | 5.0 | 8.0 | 0.00 | 0.00 | 0.00 | 78 | 1011.8 |
| 20260904150012 | 81 | 243 | 4.0 | 9.0 | 0.00 | 0.00 | 0.00 | 81 | 1011.8 |
| 20260904144509 | 80 | 254 | 5.0 | 8.0 | 0.00 | 0.00 | 0.00 | 81 | 1011.7 |
| 20260904143004 | 78 | 257 | 3.0 | 7.0 | 0.00 | 0.00 | 0.00 | 85 | 1011.8 |
| 20260904141603 | 77 | 230 | 3.0 | 5.0 | 0.00 | 0.00 | 0.00 | 89 | 1011.8 |
| 20260904140107 | 76 | 240 | 1.0 | 2.0 | 0.00 | 0.00 | 0.00 | 89 | 1011.7 |
| 20260904134612 | 75 | 240 | 1.0 | 3.0 | 0.00 | 0.00 | 0.00 | 90 | 1011.6 |
| 20260904133055 | 75 | 240 | 1.0 | 4.0 | 0.00 | 0.00 | 0.00 | 90 | 1011.6 |
| 20260904131552 | 75 | 240 | 2.0 | 7.0 | 0.00 | 0.00 | 0.00 | 90 | 1011.6 |
| 20260904130048 | 75 | 225 | 4.0 | 6.0 | 0.00 | 0.00 | 0.00 | 91 | 1011.3 |
| 20260904124547 | 73 | 234 | 3.0 | 7.0 | 0.00 | 0.01 | 0.00 | 94 | 1011.4 |
| 20260904123040 | 72 | 203 | 1.0 | 2.0 | 0.00 | 0.01 | 0.00 | 94 | 1011.5 |
| 20260904121544 | 72 | 203 | 1.0 | 2.0 | 0.00 | 0.01 | 0.00 | 93 | 1011.1 |
| 20260904120037 | 71 | 202 | 0.0 | 1.0 | 0.00 | 0.01 | 0.00 | 93 | 1011.3 |
| 20260904114531 | 71 | 202 | 0.0 | 2.0 | 0.00 | 0.02 | 0.00 | 93 | 1011.2 |
| 20260904113030 | 72 | 202 | 1.0 | 3.0 | 0.00 | 0.02 | 0.00 | 92 | 1011.2 |
| 20260904111529 | 72 | 202 | 0.0 | 1.0 | 0.00 | 0.02 | 0.00 | 92 | 1011.1 |
| 20260904110028 | 72 | 202 | 0.0 | 1.0 | 0.00 | 0.02 | 0.00 | 93 | 1011.0 |
| 20260904104527 | 72 | 202 | 1.0 | 3.0 | 0.00 | 0.21 | 0.00 | 93 | 1011.0 |
| 20260904103027 | 72 | 202 | 2.0 | 3.0 | 0.00 | 0.21 | 0.00 | 93 | 1011.0 |
| 20260904101526 | 72 | 202 | 0.0 | 1.0 | 0.00 | 0.21 | 0.00 | 93 | 1010.9 |
| 20260904100026 | 72 | 202 | 0.0 | 1.0 | 0.00 | 0.21 | 0.00 | 93 | 1011.0 |
| 20260904094539 | 72 | 202 | 0.0 | 2.0 | 0.00 | 0.22 | 0.00 | 93 | 1010.9 |
| 20260904093025 | 72 | 202 | 0.0 | 2.0 | 0.00 | 0.22 | 0.00 | 92 | 1010.9 |
| 20260904091523 | 72 | 202 | 0.0 | 1.0 | 0.00 | 0.22 | 0.00 | 92 | 1010.7 |
| 20260904090039 | 72 | 202 | 0.0 | 2.0 | 0.00 | 0.22 | 0.00 | 92 | 1010.7 |
| 20260904084522 | 72 | 203 | 2.0 | 4.0 | 0.00 | 0.22 | 0.00 | 93 | 1010.5 |
| 20260904083032 | 72 | 202 | 1.0 | 2.0 | 0.00 | 0.22 | 0.00 | 92 | 1010.4 |
| 20260904081529 | 72 | 203 | 0.0 | 0.0 | 0.00 | 0.22 | 0.00 | 93 | 1010.4 |
| 20260904080017 | 73 | 203 | 0.0 | 1.0 | 0.00 | 0.22 | 0.00 | 92 | 1010.4 |
| 20260904074518 | 73 | 203 | 1.0 | 3.0 | 0.00 | 0.22 | 0.00 | 92 | 1010.5 |
| 20260904073015 | 73 | 200 | 1.0 | 2.0 | 0.00 | 0.22 | 0.00 | 92 | 1010.4 |
| 20260904071511 | 74 | 200 | 1.0 | 3.0 | 0.00 | 0.22 | 0.00 | 92 | 1010.5 |
| 20260904070010 | 74 | 200 | 1.0 | 3.0 | 0.00 | 0.22 | 0.00 | 92 | 1010.7 |
| 20260904064508 | 74 | 200 | 1.0 | 3.0 | 0.00 | 0.22 | 0.00 | 91 | 1010.9 |
| 20260904063012 | 75 | 200 | 2.0 | 3.0 | 0.00 | 0.22 | 0.00 | 92 | 1010.9 |